Regional Weather Roundup
Issued by NWS

Home | Current Version | Previous Version | Text Only | Print | Product List | Glossary Off
Versions: 1 2 3 4 5 6 7 8 9 10 11 12 13 14 15 16 17 18 19 20 21 22 23 24 25 26 27 28 29 30 31 32 33 34 35 36 37 38 39 40 41 42 43 44 45 46 47 48 49 50

000
ASUS43 KMKX 270811
RWRWI

WISCONSIN REGIONAL WEATHER ROUNDUP
NATIONAL WEATHER SERVICE MILWAUKEE/SULLIVAN WI
300 AM CDT WED JUL 27 2016

NOTE: "FAIR" INDICATES FEW OR NO CLOUDS BELOW 12,000 FEET WITH NO
SIGNIFICANT WEATHER AND/OR OBSTRUCTIONS TO VISIBILITY.

WIZ001-002-006>008-014>016-023>028-270900-
NORTHWEST WISCONSIN

CITY           SKY/WX    TMP DP  RH WIND       PRES   REMARKS
SUPERIOR ARPT  CLOUDY    65  64  98 SW6       29.94S
ASHLAND        CLOUDY    69  67  93 W6        29.96S
HAYWARD        LGT RAIN  67  65  93 CALM      29.98S
SIREN          CLOUDY    70  63  78 SE3       29.97S
CUMBERLAND     CLOUDY    68  63  83 CALM      29.99S
RICE LAKE      CLOUDY    67  64  91 CALM      30.00S
CHETEK         CLOUDY    68  66  94 CALM      29.99R
LADYSMITH      CLOUDY    66  63  90 CALM      30.01R
EAU CLAIRE     CLOUDY    69  68  96 CALM      29.97F
MENOMONIE      CLOUDY    69  65  88 CALM      29.98S
NEW RICHMOND   CLOUDY    69  64  85 SE3       29.98F
OSCEOLA        CLOUDY    68  64  86 CALM      29.99F
$$

WIZ003>005-009-010-017-018-270900-
NORTH CENTRAL WISCONSIN

CITY           SKY/WX    TMP DP  RH WIND       PRES   REMARKS
MANITOWISH WTR CLOUDY    66  66 100 SW7       30.01R
ARBOR VITAE    CLOUDY    63  61  93 N5        30.00R
WOODRUFF       CLOUDY    63  61  93 N5        30.00R
RHINELANDER    CLOUDY    64  60  87 W7        29.99F
EAGLE RIVER    LGT RAIN  62  61  98 CALM      30.00F
LAND O LAKES   CLOUDY    64  60  86 CALM      30.01F
PHILLIPS       CLOUDY    65  65 100 CALM      29.99F
TOMAHAWK       MOCLDY    62  60  95 CALM      30.01S
MEDFORD        PTCLDY    63  63 100 CALM      30.00F
MERRILL        CLEAR     64  62  95 CALM      30.00F
$$

WIZ029-030-035-036-043>047-270900-
CENTRAL WISCONSIN

CITY           SKY/WX    TMP DP  RH WIND       PRES   REMARKS
WAUSAU         PTCLDY    71  64  78 NW3       29.98F
MOSINEE        CLEAR     68  68 100 NW3       30.00F
MARSHFIELD     CLEAR     69  66  90 W3        29.99F
STEVENS POINT  CLEAR     72  66  83 W3        29.99F
WAUPACA        CLEAR     73  69  86 CALM      29.98S
WAUTOMA        CLEAR     67  66  97 CALM      29.99F
WISC RAPIDS    CLEAR     69  65  86 SW3       30.00F
CAMP DOUGLAS   CLEAR     63  63  99 SE5       29.99S
$$

WIZ011>013-019>022-031-037>040-048>050-270900-
NORTHEAST WISCONSIN

CITY           SKY/WX    TMP DP  RH WIND       PRES   REMARKS
ANTIGO         PTCLDY    64  60  87 CALM      30.01F
SHAWANO        CLEAR     74  67  80 W5        29.98R
OCONTO         PTCLDY   N/A N/A N/A CALM      29.95R
STURGEON BAY   CLEAR     74  69  85 SW7       29.96S
GREEN BAY      CLEAR     73  70  90 SW3       29.96S
MANITOWOC      CLEAR     75  66  73 W7        29.97S
APPLETON       CLEAR     72  64  78 W6        29.97S
CLINTONVILLE   CLEAR     70  64  83 W3        29.98R
OSHKOSH        CLEAR     72  66  81 W3        29.98S
$$

WIZ032>034-041-042-053>061-270900-
SOUTHWEST WISCONSIN

CITY           SKY/WX    TMP DP  RH WIND       PRES   REMARKS
LA CROSSE      CLEAR     71  68  90 SE5       29.97F
SPARTA         CLEAR     63  63 100 CALM      30.00F
VIROQUA        PTCLDY    66  66 100 CALM      30.03R
BOSCOBEL       PTCLDY    65  64  97 CALM      30.00S FOG
PRAIRIE DU CHI CLEAR     67  64  91 E3        29.99F
PLATTEVILLE    CLEAR     69  67  94 CALM      30.02S
$$

WIZ056-057-062-063-064-067-068-270900-
SOUTH CENTRAL WISCONSIN

CITY           SKY/WX    TMP DP  RH WIND       PRES   REMARKS
REEDSBURG      PTCLDY    65  65 100 CALM      30.00S
BARABOO/DELLS  PTCLDY    65  62  91 S3        30.00F
LONE ROCK      CLEAR     64  63  96 CALM      30.01S
MINERAL POINT  CLEAR     68  64  88 CALM      30.02F
MADISON        CLEAR     67  64  90 CALM      30.00S
MIDDLETON      CLEAR     65  64  99 CALM      30.02R
WATERTOWN      CLEAR     66  66 100 SW3       30.00S
MONROE         CLEAR     73  63  68 W7        30.02R
JANESVILLE     CLEAR     68  64  88 CALM      30.01R
$$

WIZ051-052-058>065-066-070>072-270900-
SOUTHEAST WISCONSIN

CITY           SKY/WX    TMP DP  RH WIND       PRES   REMARKS
MILWAUKEE      CLEAR     73  65  75 SW3       29.99S
WAUKESHA       CLEAR     64  63  94 CALM      30.01S
MILWAUKEE/TIMM CLEAR     68  61  77 CALM      30.00S
RACINE         CLEAR     71  63  75 W6        30.01S
BURLINGTON     CLEAR     63  62  97 CALM      30.01R
KENOSHA        CLEAR     66  63  90 W3        30.01R
FOND DU LAC    CLEAR     70  65  84 SW3       29.98F
SHEBOYGAN      CLEAR     71  64  78 NW7       29.97F
WEST BEND      CLEAR     64  63  94 CALM      30.00R
JUNEAU         CLEAR     66  64  94 SW3       30.01S
$$

LSZ147-162-270900-
LAKE SUPERIOR

STATION/POSITION TIME  TEMP    WIND        PRES    WAVE
                       AIR SEA DIR/SP/G            HT/PER
                 (UTC) (F)     (DEG/KT/KT) (MB)    (FT/S)
W MID LAKE BUOY  0750   65 61   40/  8/  8 1013.5F   0
DEVILS ISLAND    0800   68      70/  9/  9 1014.1R
PORT WING        0700   71     190/  5/  6 1014.2F
SAXON HARBOR     0700   72     180/  3/  5 1013.5F
$$

LMZ867-665-643>646-270900-
LAKE MICHIGAN

STATION/POSITION TIME  TEMP    WIND        PRES    WAVE
                       AIR SEA DIR/SP/G            HT/PER
                 (UTC) (F)     (DEG/KT/KT) (MB)    (FT/S)
CHAMBERS ISLAND  0700   72     230/  2/  4 1013.9R
S GREEN BAY BUOY 0700   72 74   20/  2/  2   N/A
N MID LAKE BUOY  0750   71 69  300/  4/  6 1012.9R   2/ 5
NORTHPORT PIER   0700   75     280/  6/ 10 1013.5R
SISTER BAY       0721   74     270/  7/  7   N/A
ALGOMA LAKESHORE 0713          300/  6/ 10   N/A
KEWAUNEE LAKESHO 0700   76     280/  5/  7 1013.8R
SHEBOYGAN LAKESH 0800   74     260/  6/  8 1014.7F
PORT WASHINGTON  0700   72     260/  3/  5 1015.9F
ATWATER BUOY     0800   65 54  180/  2/  4 1016.9F
MILWAUKEE LAKESH 0710   72     150/  2/  3   N/A
S MID LAKE BUOY  0750   75 76  190/  4/  6 1014.8S   0
KENOSHA   LAKESH 0800   75     260/  6/  7 1015.6R
$$

TC  - TEMPERATURE IN CELSIUS
VSB - VISIBILITY IN STATUTE MILES
WCI - WIND CHILL INDEX
HX  - HEAT INDEX




USA.gov is the U.S. government's official web portal to all federal, state and local government web resources and services.